GW3643 Weather Reports


Display with metric or nautical units.
time (UTC)temp
F
wind
direction
speed
MPH
gust
MPH
rain 1hr
in
rain 24hr
in
rain mn
in
humidity
%
barometer
mb
20260508004045 51 75 1.0 5.0 0.00 0.25 0.00 77 1011.4
20260508003542 52 128 1.0 6.0 0.00 0.25 0.00 77 1011.5
20260508003049 52 130 1.0 6.0 0.00 0.25 0.00 77 1011.6
20260508002542 52 0 1.0 4.0 0.00 0.25 0.00 77 1011.6
20260508002042 52 90 1.0 2.0 0.00 0.25 0.00 77 1011.6
20260508001548 52 112 0.0 2.0 0.00 0.25 0.00 77 1011.6
20260508001042 52 112 0.0 2.0 0.00 0.25 0.00 77 1011.7
20260508000544 52 0 0.0 3.0 0.00 0.25 0.00 77 1011.8
20260508000050 52 0 1.0 3.0 0.00 0.25 0.00 77 1011.8
20260507235545 52 0 0.0 4.0 0.00 0.25 0.00 77 1011.9
20260507235044 52 0 0.0 4.0 0.00 0.25 0.00 76 1011.9
20260507234551 52 36 0.0 3.0 0.00 0.25 0.00 76 1011.9
20260507234044 52 0 0.0 4.0 0.00 0.25 0.00 76 1011.8
20260507233542 52 0 0.0 4.0 0.00 0.25 0.00 75 1011.8
20260507233052 52 121 1.0 4.0 0.00 0.25 0.00 75 1011.9
20260507232547 52 168 1.0 4.0 0.00 0.25 0.00 75 1012.0
20260507232042 53 0 1.0 4.0 0.00 0.25 0.00 74 1012.0
20260507231555 53 54 0.0 3.0 0.00 0.25 0.00 74 1012.1
20260507231044 53 176 0.0 2.0 0.00 0.25 0.00 74 1012.1
20260507230543 53 0 0.0 2.0 0.00 0.25 0.00 73 1012.2
20260507230059 53 0 0.0 2.0 0.00 0.25 0.00 73 1012.3
20260507225545 53 0 0.0 2.0 0.00 0.25 0.00 73 1012.3
20260507225045 53 176 0.0 2.0 0.00 0.25 0.00 73 1012.4
20260507224553 53 0 0.0 4.0 0.00 0.25 0.00 73 1012.4
20260507224044 53 0 0.0 4.0 0.00 0.25 0.00 73 1012.4
20260507223547 53 0 0.0 5.0 0.00 0.25 0.00 73 1012.2
20260507223048 53 109 1.0 5.0 0.00 0.25 0.00 73 1012.2
20260507222543 53 0 2.0 5.0 0.00 0.25 0.00 73 1012.2
20260507222044 53 121 2.0 6.0 0.00 0.25 0.00 73 1012.2
20260507221551 54 114 2.0 6.0 0.00 0.25 0.00 72 1012.3
20260507221048 54 149 1.0 3.0 0.00 0.25 0.00 72 1012.3
20260507220542 54 0 0.0 4.0 0.00 0.25 0.00 72 1012.3
20260507220051 54 148 1.0 4.0 0.00 0.25 0.00 71 1012.4
20260507215547 54 154 1.0 4.0 0.00 0.25 0.25 71 1012.4
20260507215044 54 136 0.0 4.0 0.00 0.25 0.25 71 1012.3
20260507214552 54 0 0.0 4.0 0.00 0.25 0.25 71 1012.2
20260507214044 54 136 1.0 4.0 0.00 0.25 0.25 71 1012.1
20260507213543 54 146 1.0 4.0 0.00 0.25 0.25 71 1012.2
20260507213106 54 155 0.0 4.0 0.00 0.25 0.25 71 1012.1
20260507212545 54 0 1.0 5.0 0.00 0.25 0.25 71 1012.1
20260507212045 55 148 1.0 5.0 0.00 0.25 0.25 71 1012.1
20260507211557 55 168 1.0 5.0 0.00 0.25 0.25 70 1012.1
20260507211043 55 157 1.0 5.0 0.00 0.25 0.25 69 1012.1
20260507210545 55 157 1.0 5.0 0.00 0.25 0.25 68 1012.0
20260507210058 55 87 0.0 3.0 0.00 0.25 0.25 68 1011.9
20260507205544 55 134 0.0 4.0 0.00 0.25 0.25 68 1011.8
20260507205047 55 0 1.0 4.0 0.00 0.25 0.25 67 1011.9
20260507204557 55 64 0.0 3.0 0.00 0.25 0.25 68 1011.7
20260507204042 55 0 0.0 3.0 0.00 0.25 0.25 68 1011.6
20260507203544 55 0 0.0 4.0 0.00 0.25 0.25 67 1011.5
20260507203056 55 0 1.0 4.0 0.00 0.25 0.25 67 1011.4
20260507202543 55 67 1.0 4.0 0.00 0.25 0.25 67 1011.3
20260507202042 55 0 0.0 4.0 0.00 0.25 0.25 67 1011.3
20260507201603 55 0 0.0 5.0 0.00 0.25 0.25 66 1011.1
20260507201044 55 0 0.0 5.0 0.00 0.25 0.25 66 1011.2
20260507200544 55 0 2.0 6.0 0.00 0.25 0.25 66 1010.9
20260507200056 55 146 3.0 6.0 0.00 0.25 0.25 67 1011.0
20260507195543 56 0 1.0 5.0 0.00 0.25 0.25 67 1010.9
20260507195045 56 70 1.0 5.0 0.00 0.25 0.25 67 1010.8
20260507194603 56 0 2.0 4.0 0.00 0.25 0.25 67 1010.7
20260507194044 56 0 1.0 4.0 0.00 0.25 0.25 67 1010.7
20260507193546 56 57 0.0 4.0 0.00 0.25 0.25 66 1010.6
20260507193057 56 60 1.0 3.0 0.00 0.25 0.25 66 1010.5
20260507192542 56 77 0.0 3.0 0.00 0.25 0.25 65 1010.3
20260507192042 56 58 1.0 3.0 0.00 0.25 0.25 65 1010.3
20260507191615 56 87 1.0 3.0 0.00 0.25 0.25 65 1010.3
20260507191043 56 72 0.0 4.0 0.00 0.25 0.25 64 1010.3
20260507190544 56 72 1.0 4.0 0.00 0.25 0.25 63 1010.3
20260507190051 57 26 1.0 4.0 0.00 0.25 0.25 64 1010.1
20260507185541 57 0 1.0 4.0 0.00 0.25 0.25 63 1009.9
20260507185045 57 0 1.0 4.0 0.00 0.25 0.25 62 1009.9
20260507184602 57 0 1.0 4.0 0.00 0.25 0.25 61 1010.0
20260507184045 57 358 1.0 6.0 0.00 0.25 0.25 62 1009.9
20260507183544 57 43 1.0 6.0 0.00 0.25 0.25 62 1009.8
20260507183104 57 10 2.0 6.0 0.00 0.25 0.25 61 1009.7
20260507182546 57 14 2.0 5.0 0.00 0.25 0.25 62 1009.7
20260507182045 57 351 2.0 5.0 0.00 0.25 0.25 61 1009.6
20260507181555 57 24 0.0 5.0 0.00 0.25 0.25 62 1009.5
20260507181045 57 0 2.0 5.0 0.00 0.25 0.25 62 1009.6
20260507180543 57 5 2.0 4.0 0.00 0.25 0.25 63 1009.6
20260507180056 57 0 2.0 8.0 0.00 0.25 0.25 62 1009.6
20260507175548 57 68 2.0 8.0 0.00 0.25 0.25 62 1009.6
20260507175045 57 76 2.0 6.0 0.00 0.25 0.25 64 1009.6
20260507174557 57 174 1.0 6.0 0.00 0.25 0.25 63 1009.6
20260507174042 57 60 1.0 6.0 0.00 0.25 0.25 64 1009.6
20260507173544 56 116 1.0 6.0 0.00 0.25 0.25 64 1009.7
20260507173057 57 0 1.0 6.0 0.00 0.25 0.25 64 1009.6
20260507172544 57 61 1.0 6.0 0.00 0.25 0.25 63 1009.7
20260507172045 57 62 1.0 8.0 0.00 0.25 0.25 63 1009.8
20260507171604 57 135 1.0 8.0 0.00 0.25 0.25 63 1009.9
20260507171045 58 15 3.0 8.0 0.00 0.25 0.25 62 1009.8
20260507170544 58 43 2.0 5.0 0.00 0.25 0.25 63 1009.9
20260507170055 58 0 1.0 9.0 0.00 0.25 0.25 64 1009.8
20260507165542 57 4 2.0 9.0 0.00 0.25 0.25 66 1009.8
20260507165045 57 14 4.0 9.0 0.00 0.25 0.25 64 1009.6
20260507164619 57 37 2.0 8.0 0.00 0.25 0.25 67 1009.7
20260507164045 56 85 2.0 11.0 0.00 0.25 0.25 67 1009.6
20260507163543 56 117 3.0 11.0 0.00 0.25 0.25 67 1009.7
20260507163053 57 341 2.0 9.0 0.00 0.25 0.25 68 1009.7
20260507162545 57 24 2.0 7.0 0.00 0.25 0.25 68 1009.7
20260507162045 56 7 1.0 6.0 0.00 0.25 0.25 71 1009.6
20260507161601 55 40 0.0 9.0 0.00 0.25 0.25 73 1009.6
20260507161044 54 93 2.0 9.0 0.00 0.25 0.25 72 1009.4
20260507160541 54 161 4.0 8.0 0.00 0.25 0.25 71 1009.4
20260507160052 54 63 4.0 9.0 0.01 0.25 0.25 71 1009.2
20260507155546 54 141 3.0 9.0 0.01 0.25 0.25 72 1009.2
20260507155045 54 148 5.0 9.0 0.01 0.25 0.25 72 1009.3
20260507154555 54 124 3.0 8.0 0.02 0.25 0.25 71 1009.2
20260507154042 54 132 2.0 8.0 0.03 0.25 0.25 73 1009.2
20260507153547 54 151 2.0 8.0 0.05 0.25 0.25 72 1009.2
20260507153052 54 110 3.0 7.0 0.06 0.25 0.25 71 1009.3
20260507152544 54 146 3.0 6.0 0.06 0.25 0.25 72 1009.4
20260507152046 54 141 3.0 6.0 0.07 0.25 0.25 73 1009.7
20260507151552 54 122 2.0 6.0 0.06 0.24 0.24 75 1010.0
20260507151042 54 130 2.0 9.0 0.07 0.24 0.24 74 1010.1
20260507150544 54 130 1.0 10.0 0.08 0.24 0.24 75 1010.2
20260507150054 53 205 4.0 10.0 0.08 0.23 0.23 75 1010.3
20260507145544 53 149 4.0 9.0 0.08 0.23 0.23 77 1010.3
20260507145041 53 179 3.0 10.0 0.11 0.23 0.23 78 1010.2
20260507144552 53 147 4.0 10.0 0.15 0.22 0.22 77 1010.2
20260507144045 53 194 6.0 9.0 0.18 0.21 0.21 76 1010.3
20260507143541 53 191 4.0 8.0 0.18 0.19 0.19 76 1010.4
20260507143108 53 190 4.0 10.0 0.18 0.18 0.18 75 1010.3
20260507142541 53 170 4.0 10.0 0.18 0.18 0.18 74 1010.1
20260507142045 54 124 2.0 8.0 0.17 0.18 0.18 73 1009.9
20260507141611 54 114 3.0 9.0 0.17 0.18 0.18 74 1010.0
20260507141048 53 153 2.0 9.0 0.15 0.16 0.16 77 1010.1
20260507140547 54 86 3.0 8.0 0.14 0.15 0.15 77 1010.3
20260507140056 53 70 3.0 9.0 0.14 0.14 0.14 76 1010.3
20260507135544 54 150 3.0 10.0 0.13 0.14 0.14 76 1010.4
20260507135045 54 176 3.0 15.0 0.11 0.11 0.11 75 1010.6
20260507134556 54 147 5.0 15.0 0.07 0.07 0.07 72 1010.7
20260507134042 55 152 6.0 12.0 0.03 0.03 0.03 72 1010.6
20260507133543 55 139 5.0 15.0 0.00 0.00 0.00 71 1010.4
20260507133101 55 155 6.0 15.0 0.00 0.00 0.00 72 1010.2
20260507132542 55 166 5.0 11.0 0.00 0.00 0.00 72 1010.0
20260507132042 56 108 4.0 11.0 0.00 0.00 0.00 72 1009.9
20260507131607 56 65 4.0 11.0 0.00 0.00 0.00 71 1009.8
20260507131044 56 161 3.0 11.0 0.00 0.00 0.00 70 1009.8
20260507130544 56 144 4.0 13.0 0.00 0.00 0.00 69 1009.8
20260507130056 57 134 6.0 13.0 0.00 0.00 0.00 67 1009.7
20260507125542 58 107 6.0 13.0 0.00 0.00 0.00 64 1009.7
20260507125045 61 112 4.0 10.0 0.00 0.00 0.00 59 1009.7
20260507124556 61 163 5.0 9.0 0.00 0.00 0.00 58 1009.5
20260507124044 61 170 4.0 10.0 0.00 0.00 0.00 57 1009.5
20260507123543 61 176 5.0 10.0 0.00 0.00 0.00 56 1009.6
20260507123110 62 180 2.0 9.0 0.00 0.00 0.00 55 1009.6
20260507122545 61 172 2.0 8.0 0.00 0.00 0.00 56 1009.6
20260507122047 62 154 3.0 8.0 0.00 0.00 0.00 55 1009.6
20260507121552 62 215 3.0 9.0 0.00 0.00 0.00 55 1009.6
20260507121042 62 152 3.0 9.0 0.00 0.00 0.00 55 1009.7
20260507120541 62 159 1.0 9.0 0.00 0.00 0.00 54 1009.7
20260507120053 62 79 1.0 9.0 0.00 0.00 0.00 55 1009.5
20260507115542 62 178 4.0 9.0 0.00 0.00 0.00 55 1009.5
20260507115041 62 244 2.0 9.0 0.00 0.00 0.00 55 1009.6
20260507114558 62 218 4.0 9.0 0.00 0.00 0.00 55 1009.7
20260507114043 62 148 1.0 6.0 0.00 0.00 0.00 56 1009.7
20260507113541 62 170 1.0 10.0 0.00 0.00 0.00 56 1009.8
20260507113051 62 173 3.0 11.0 0.00 0.00 0.00 56 1010.0
20260507112544 62 176 5.0 11.0 0.00 0.00 0.00 56 1010.0
20260507112041 62 0 1.0 8.0 0.00 0.00 0.00 55 1010.0
20260507111551 62 122 2.0 8.0 0.00 0.00 0.00 55 1010.2
20260507111044 61 0 4.0 8.0 0.00 0.00 0.00 56 1010.3
20260507110544 61 171 2.0 8.0 0.00 0.00 0.00 55 1010.3
20260507110055 63 182 1.0 5.0 0.00 0.00 0.00 54 1010.3
20260507105541 63 0 0.0 5.0 0.00 0.00 0.00 56 1010.4
20260507105045 61 171 2.0 5.0 0.00 0.00 0.00 57 1010.4
20260507104558 61 181 1.0 8.0 0.00 0.00 0.00 58 1010.5
20260507104044 60 73 1.0 8.0 0.00 0.00 0.00 59 1010.5
20260507103546 60 126 2.0 6.0 0.00 0.00 0.00 59 1010.7
20260507103048 60 107 1.0 8.0 0.00 0.00 0.00 58 1010.8
20260507102545 59 41 2.0 9.0 0.00 0.00 0.00 60 1010.8
20260507102045 59 179 2.0 9.0 0.00 0.00 0.00 60 1010.8
20260507101550 59 188 2.0 9.0 0.00 0.00 0.00 60 1011.0
20260507101045 60 153 1.0 7.0 0.00 0.00 0.00 60 1011.0
20260507100542 60 77 3.0 7.0 0.00 0.00 0.00 60 1011.0
20260507100059 61 5 2.0 5.0 0.00 0.00 0.00 59 1011.1
20260507095545 59 0 2.0 9.0 0.00 0.00 0.00 61 1011.0
20260507095045 59 0 1.0 9.0 0.00 0.00 0.00 60 1010.9
20260507094550 59 74 2.0 9.0 0.00 0.00 0.00 61 1010.9
20260507094045 59 346 2.0 7.0 0.00 0.00 0.00 61 1010.9
20260507093545 58 56 2.0 6.0 0.00 0.00 0.00 62 1010.9
20260507093052 58 18 1.0 8.0 0.00 0.00 0.00 65 1010.9
20260507092545 57 163 2.0 8.0 0.00 0.00 0.00 63 1010.9
20260507092043 58 191 3.0 7.0 0.00 0.00 0.00 63 1010.9
20260507091552 58 116 1.0 7.0 0.00 0.00 0.00 63 1011.0
20260507091045 58 205 2.0 9.0 0.00 0.00 0.00 61 1010.9
20260507090543 58 66 1.0 9.0 0.00 0.00 0.00 62 1010.9
20260507090100 58 1 3.0 11.0 0.00 0.00 0.00 61 1010.9
20260507085544 58 114 4.0 11.0 0.00 0.00 0.00 63 1010.9
20260507085043 58 12 7.0 11.0 0.00 0.00 0.00 62 1010.9
20260507084556 57 0 2.0 8.0 0.00 0.00 0.00 64 1010.9
20260507084042 56 70 3.0 7.0 0.00 0.00 0.00 65 1010.9
20260507083544 57 81 0.0 6.0 0.00 0.00 0.00 65 1011.0
20260507083058 56 134 2.0 9.0 0.00 0.00 0.00 65 1010.9
20260507082544 56 55 3.0 9.0 0.00 0.00 0.00 67 1010.9
20260507082044 55 7 4.0 8.0 0.00 0.00 0.00 67 1010.9
20260507081556 55 62 2.0 6.0 0.00 0.00 0.00 67 1011.0
20260507081045 55 118 1.0 7.0 0.00 0.00 0.00 67 1011.0
20260507080544 55 39 3.0 7.0 0.00 0.00 0.00 67 1010.9
20260507075545 55 70 3.0 5.0 0.00 0.00 0.00 67 1010.9
20260507075045 55 338 2.0 9.0 0.00 0.00 0.00 68 1010.9
20260507074550 54 28 1.0 9.0 0.00 0.00 0.00 68 1010.7
20260507074042 54 64 4.0 9.0 0.00 0.00 0.00 68 1010.7
20260507073548 54 16 2.0 10.0 0.00 0.00 0.00 68 1010.7
20260507073051 54 76 3.0 10.0 0.00 0.00 0.00 68 1010.7
20260507072544 54 37 1.0 6.0 0.00 0.00 0.00 68 1010.7
20260507072045 54 36 2.0 6.0 0.00 0.00 0.00 68 1010.8
20260507071553 54 22 1.0 4.0 0.00 0.00 0.00 68 1010.8
20260507071044 54 26 0.0 5.0 0.00 0.00 0.00 68 1010.8
20260507070541 54 63 0.0 5.0 0.00 0.00 0.00 68 1010.8
20260507070058 54 0 2.0 6.0 0.00 0.00 0.00 68 1010.8
20260507065547 54 84 0.0 6.0 0.00 0.00 0.00 68 1010.7
20260507065044 54 78 2.0 6.0 0.00 0.00 0.00 68 1010.7
20260507064623 54 0 1.0 6.0 0.00 0.00 0.00 68 1010.7
20260507064044 54 3 2.0 6.0 0.00 0.00 0.00 68 1010.4
20260507063544 54 109 1.0 5.0 0.00 0.00 0.00 68 1010.4
20260507063053 53 12 1.0 5.0 0.00 0.00 0.00 68 1010.3
20260507062543 53 107 1.0 5.0 0.00 0.00 0.00 68 1010.4
20260507062043 53 40 1.0 4.0 0.00 0.00 0.00 69 1010.3
20260507061549 53 1 1.0 5.0 0.00 0.00 0.00 69 1010.2
20260507061044 53 0 2.0 6.0 0.00 0.00 0.00 69 1010.3
20260507060542 53 110 0.0 7.0 0.00 0.00 0.00 69 1010.3
20260507060109 53 54 2.0 7.0 0.00 0.00 0.00 69 1010.3
20260507055547 53 49 2.0 7.0 0.00 0.00 0.00 69 1010.2
20260507055047 53 0 2.0 7.0 0.00 0.00 0.00 69 1010.0
20260507054552 53 50 1.0 6.0 0.00 0.00 0.00 69 1010.0
20260507054045 53 66 2.0 8.0 0.00 0.00 0.00 69 1009.9
20260507053548 53 138 2.0 10.0 0.00 0.00 0.00 69 1010.0
20260507053048 52 84 3.0 10.0 0.00 0.00 0.00 69 1010.0
20260507052547 52 88 2.0 8.0 0.00 0.00 0.00 69 1009.9
20260507052044 52 99 3.0 8.0 0.00 0.00 0.00 69 1009.9
20260507051605 53 67 3.0 8.0 0.00 0.00 0.00 69 1010.0
20260507051045 53 82 2.0 9.0 0.00 0.00 0.00 69 1009.9
20260507050549 53 0 2.0 9.0 0.00 0.00 0.00 69 1009.9
20260507050051 53 0 1.0 9.0 0.00 0.00 0.00 69 1009.9
20260507045548 53 59 1.0 9.0 0.00 0.00 0.00 69 1009.8
20260507045048 53 75 3.0 9.0 0.00 0.00 0.00 69 1009.9
20260507044556 53 20 2.0 9.0 0.00 0.00 0.00 69 1009.9
20260507044051 53 8 1.0 9.0 0.00 0.00 0.00 69 1009.9
20260507043547 53 83 3.0 7.0 0.00 0.00 0.00 69 1009.9
20260507043055 52 57 2.0 7.0 0.00 0.00 0.00 69 1009.9
20260507042547 52 0 3.0 7.0 0.00 0.00 0.00 69 1009.9
20260507042047 52 0 1.0 12.0 0.00 0.00 0.00 68 1009.9
20260507041550 52 63 3.0 12.0 0.00 0.00 0.00 68 1009.9
20260507041047 52 77 1.0 10.0 0.00 0.00 0.00 68 1009.9
20260507040547 53 57 1.0 8.0 0.00 0.00 0.00 68 1009.9
20260507040052 52 93 2.0 9.0 0.00 0.00 0.00 68 1009.9
20260507035547 52 32 2.0 9.0 0.00 0.00 0.00 68 1009.9
20260507035047 53 12 2.0 9.0 0.00 0.00 0.00 67 1010.0
20260507034555 53 38 2.0 9.0 0.00 0.00 0.00 67 1010.0
20260507034048 53 0 1.0 7.0 0.00 0.00 0.00 66 1010.0
20260507033548 53 60 1.0 7.0 0.00 0.00 0.00 66 1010.0
20260507033052 53 72 2.0 10.0 0.00 0.00 0.00 66 1009.9
20260507032548 53 55 2.0 10.0 0.00 0.00 0.00 66 1009.9
20260507032047 53 128 2.0 6.0 0.00 0.00 0.00 65 1009.9
20260507031550 53 16 1.0 8.0 0.00 0.00 0.00 65 1009.8
20260507031049 53 346 3.0 9.0 0.00 0.00 0.00 65 1009.9
20260507030548 53 51 4.0 9.0 0.00 0.00 0.00 65 1009.9
20260507030054 53 21 3.0 7.0 0.00 0.00 0.00 64 1009.9
20260507025546 53 11 1.0 8.0 0.00 0.00 0.00 64 1009.9
20260507025048 53 0 1.0 8.0 0.00 0.00 0.00 64 1010.0
20260507024555 54 88 1.0 6.0 0.00 0.00 0.00 64 1009.9
20260507024046 54 66 2.0 4.0 0.00 0.00 0.00 63 1009.8
20260507023542 54 0 0.0 5.0 0.00 0.00 0.00 63 1009.9
20260507023054 54 0 1.0 5.0 0.00 0.00 0.00 63 1009.9
20260507022545 54 0 2.0 5.0 0.00 0.00 0.00 62 1010.0
20260507022044 54 18 1.0 5.0 0.00 0.00 0.00 62 1010.0
20260507021551 54 109 2.0 5.0 0.00 0.00 0.00 62 1010.0
20260507021045 54 0 3.0 7.0 0.00 0.00 0.00 61 1009.9
20260507020545 54 0 2.0 7.0 0.00 0.00 0.00 61 1010.0
20260507015545 54 67 2.0 6.0 0.00 0.00 0.00 59 1009.9
20260507015045 54 75 1.0 6.0 0.00 0.00 0.00 59 1009.9
20260507014559 54 4 0.0 6.0 0.00 0.00 0.00 59 1009.9
20260507014045 54 0 1.0 5.0 0.00 0.00 0.00 59 1009.8
20260507013545 54 29 1.0 5.0 0.00 0.00 0.00 58 1009.9
20260507013047 54 98 1.0 5.0 0.00 0.00 0.00 59 1009.9
20260507012544 54 136 1.0 5.0 0.00 0.00 0.00 58 1009.9
20260507012044 54 151 1.0 5.0 0.00 0.00 0.00 58 1010.0
20260507011552 54 65 1.0 8.0 0.00 0.00 0.00 58 1010.0
20260507011044 54 168 2.0 8.0 0.00 0.00 0.00 58 1010.0
20260507010544 54 107 2.0 9.0 0.00 0.00 0.00 58 1010.1
20260507010059 54 291 3.0 9.0 0.00 0.00 0.00 57 1010.0
20260507005545 54 148 1.0 9.0 0.00 0.00 0.00 57 1010.0
20260507005045 54 45 4.0 9.0 0.00 0.00 0.00 56 1010.1
20260507004550 55 54 2.0 9.0 0.00 0.00 0.00 56 1010.2